"Pseudo-MPEC" for C468MR1

Created 2026 May 7 1:35:05 UT using Find_Orb

Click here for an explanation of pseudo-MPECs

 
 Astrometry: 
     C468MR1*1C2026 05 06.38507314 10 48.670+30 17 37.50   ~569o 19.22GVNEOCP703
     C468MR1 1C2026 05 06.38732214 10 56.298+30 17 40.81   ~569o 19.76GVNEOCP703
     C468MR1 1C2026 05 06.38957214 11 03.869+30 17 44.12   ~569o 19.44GVNEOCP703
     C468MR1 1C2026 05 06.39182214 11 11.425+30 17 48.08   ~569o 19.13GVNEOCP703
     C468MR1 1C2026 05 06.42228914 12 54.832+30 18 32.00   ~56AZ       VNEOCP703
     C468MR1 1C2026 05 06.42252814 12 55.670+30 18 31.93   ~56AZ 18.86GVNEOCP703
     C468MR1 1C2026 05 06.42276714 12 56.437+30 18 32.65   ~56AZ 18.79GVNEOCP703
     C468MR1 KB2026 05 06.81457 14 35 03.71 +30 24 07.3    ~5715 18.9 GXNEOCPM45
     C468MR1 KB2026 05 06.81898 14 35 16.94 +30 24 08.9    ~5715 18.8 GXNEOCPM45
     C468MR1 KB2026 05 06.82344 14 35 30.33 +30 24 10.9    ~5715 18.9 GXNEOCPM45
     C468MR1 KB2026 05 06.84239 14 36 27.44 +30 24 08.1    ~5715 19.2 GXNEOCPL04
     C468MR1 KB2026 05 06.85938 14 37 17.85 +30 24 10.3    ~5715 18.9 GXNEOCPL04
     C468MR1 0C2026 05 07.00317314 44 21.554+30 22 30.68   ~570Z 19.1 GWNEOCPJ95
     C468MR1 0C2026 05 07.00449314 44 25.274+30 22 29.32   ~570Z 19.0 GWNEOCPJ95
     C468MR1 0C2026 05 07.00873314 44 37.284+30 22 25.72   ~570Z 18.9 GWNEOCPJ95
     C468MR1 0C2026 05 07.00961114 44 39.732+30 22 24.64   ~570Z 19.0 GWNEOCPJ95

Station data:
(703) Catalina Sky Survey  (N32.417029 W110.732640)  US/Arizona.  Observer E.
   J. Christensen. Measurers T. Beuden, V. F. Carvajal, D. Fay, J. B.
   Fazekas, D. C. Fuls, A. R. Gibbs, A. D. Grauer, H. Gröller, J. K. Hogan,
   R. A. Kowalski, S. M. Larson, G. J. Leonard, D. Rankin, R. L. Seaman, F.
   C. Shelly, K. W. Wierzchoś. 0.68 m Schmidt + 10K CCD.
(J95) Great Shefford  (N51.474969 W1.447003)  UK/England.  Observer P.
   Birtwhistle. 0.41-m f/6.3 Schmidt-Cassegrain + CCD.
(L04) ROASTERR-1 Observatory, Cluj-Napoca  (N46.820952 E23.596400)  Romania.
   Observer L. Hudin. 0.1-m f/9 refractor + CCD.
(M45) Starhopper Observatory, Sfantu Gheorghe  (N45.865494 E25.768890)
   Romania.  Observer F. Ursache. 0.41-m f/7.5 reflector + CMO.

Orbital elements:  C468MR1
   Perihelion 2026 Apr 17.388298 +/- 0.0143 TT =  9:19:08.9 (JD 2461147.888298)
Epoch 2026 May  7.0 TT = JDT 2461167.5   Earth MOID: 0.0053      AutoNEOCP
M   6.783806791 +/- 0.052           (J2000 ecliptic)
n   0.345906068 +/- 0.00283         Peri.  341.694358 +/- 0.039
a   2.009851307 +/- 0.011           Node   220.767196 +/- 0.0025
e   0.50425982 +/- 0.00276          Incl.   10.038413 +/- 0.051
P   2.84935                H 25.83  G  0.15   U  8.8
q 0.996364029 +/- 0.000116    Q 3.023338585 +/- 0.022
From 16 observations 2026 May 6-7 (15.0 hr); mean residual 0".37
Residuals in arcseconds: 
260506 703  .66+  .71+    260506 703  .10-  .21-    260507 J95  .07+  .05+    
260506 703  .57+  .23+    260506 M45  .09+  .17+    260507 J95  .11-  .13-    
260506 703  .29-  .19-    260506 M45  .23-  .15-    260507 J95  .23+  .15+    
260506 703  1.3-  .10+    260506 M45  .09-  .09+    260507 J95  .18-  .11-    
260506 703  .09+  .24-    260506 L04  .00   .24+    
260506 703  .45+  .62-    260506 L04  .21+  .02-    

Ephemerides (geocentric):
Date (UTC) HH   RA             Dec           delta  r     elong  mag " sig PA
---- --------  ------------   ------------  ------ ------ -----  --- --------
2026 05 07 02  14 48 15.496   +30 23 26.33  .02319 1.0248 132.9 19.5 .903  41
2026 05 07 03  14 50 14.270   +30 22 34.39  .02334 1.0250 132.9 19.5 1.15  53
2026 05 07 04  14 52 11.496   +30 21 36.38  .02349 1.0251 132.9 19.5 1.45  61
2026 05 07 05  14 54 07.188   +30 20 32.57  .02364 1.0252 132.9 19.5 1.80  67
2026 05 07 06  14 56 01.358   +30 19 23.20  .02379 1.0253 133.0 19.5 2.18  71
2026 05 07 07  14 57 54.021   +30 18 08.50  .02394 1.0254 133.0 19.5 2.60  75
2026 05 07 08  14 59 45.192   +30 16 48.70  .02410 1.0255 133.0 19.5 3.05  77
2026 05 07 09  15 01 34.885   +30 15 24.03  .02426 1.0257 133.0 19.6 3.53  79
2026 05 07 10  15 03 23.116   +30 13 54.72  .02441 1.0258 133.0 19.6 4.03  81
2026 05 07 11  15 05 09.901   +30 12 20.96  .02457 1.0259 133.0 19.6 4.56  82
2026 05 07 12  15 06 55.255   +30 10 42.97  .02473 1.0260 133.0 19.6 5.10  84
2026 05 07 13  15 08 39.194   +30 09 00.94  .02489 1.0261 133.0 19.6 5.68  85
2026 05 07 14  15 10 21.736   +30 07 15.07  .02505 1.0263 133.0 19.6 6.27  86
2026 05 07 15  15 12 02.896   +30 05 25.55  .02521 1.0264 132.9 19.6 6.87  87
2026 05 07 16  15 13 42.692   +30 03 32.54  .02538 1.0265 132.9 19.7 7.50  87
2026 05 07 17  15 15 21.139   +30 01 36.24  .02554 1.0266 132.9 19.7 8.15  88
2026 05 07 18  15 16 58.256   +29 59 36.80  .02571 1.0267 132.9 19.7 8.80  89
2026 05 07 19  15 18 34.059   +29 57 34.39  .02587 1.0269 132.9 19.7 9.48  89
2026 05 07 20  15 20 08.566   +29 55 29.17  .02604 1.0270 132.9 19.7 10.2  90
2026 05 07 21  15 21 41.793   +29 53 21.29  .02621 1.0271 132.9 19.7 10.9  90
2026 05 07 22  15 23 13.757   +29 51 10.89  .02638 1.0272 132.9 19.7 11.6  91
2026 05 07 23  15 24 44.477   +29 48 58.12  .02655 1.0274 132.8 19.8 12.3  91
2026 05 08 00  15 26 13.968   +29 46 43.11  .02672 1.0275 132.8 19.8 13.0  91
2026 05 08 01  15 27 42.249   +29 44 25.99  .02689 1.0276 132.8 19.8 13.8  92
2026 05 08 02  15 29 09.336   +29 42 06.90  .02707 1.0277 132.8 19.8 14.5  92
2026 05 08 03  15 30 35.245   +29 39 45.94  .02724 1.0278 132.8 19.8 15.3  93
2026 05 08 04  15 31 59.995   +29 37 23.25  .02741 1.0280 132.7 19.8 16.1  93
2026 05 08 05  15 33 23.601   +29 34 58.92  .02759 1.0281 132.7 19.8 16.8  93
2026 05 08 06  15 34 46.081   +29 32 33.08  .02776 1.0282 132.7 19.9 17.6  94
2026 05 08 07  15 36 07.451   +29 30 05.82  .02794 1.0283 132.7 19.9 18.4  94
2026 05 08 08  15 37 27.727   +29 27 37.24  .02812 1.0285 132.6 19.9 19.2  94
2026 05 08 09  15 38 46.926   +29 25 07.44  .02830 1.0286 132.6 19.9 20.0  94
2026 05 08 10  15 40 05.064   +29 22 36.52  .02848 1.0287 132.6 19.9 20.8  95
2026 05 08 11  15 41 22.156   +29 20 04.56  .02865 1.0288 132.6 19.9 21.6  95
2026 05 08 12  15 42 38.219   +29 17 31.64  .02884 1.0290 132.5 19.9 22.4  95
2026 05 08 13  15 43 53.269   +29 14 57.85  .02902 1.0291 132.5 20.0 23.3  95
2026 05 08 14  15 45 07.320   +29 12 23.27  .02920 1.0292 132.5 20.0 24.1  96
2026 05 08 15  15 46 20.389   +29 09 47.97  .02938 1.0293 132.5 20.0 24.9  96
2026 05 08 16  15 47 32.490   +29 07 12.02  .02956 1.0295 132.4 20.0 25.7  96
2026 05 08 17  15 48 43.638   +29 04 35.49  .02975 1.0296 132.4 20.0 26.5  96
2026 05 08 18  15 49 53.848   +29 01 58.46  .02993 1.0297 132.4 20.0 27.4  96
2026 05 08 19  15 51 03.136   +28 59 20.97  .03012 1.0298 132.3 20.0 28.2  97
2026 05 08 20  15 52 11.514   +28 56 43.10  .03030 1.0300 132.3 20.1 29.0  97
2026 05 08 21  15 53 18.997   +28 54 04.90  .03049 1.0301 132.3 20.1 29.8  97
2026 05 08 22  15 54 25.600   +28 51 26.42  .03067 1.0302 132.3 20.1 30.7  97
2026 05 08 23  15 55 31.336   +28 48 47.72  .03086 1.0304 132.2 20.1 31.5  97
2026 05 09 00  15 56 36.219   +28 46 08.85  .03105 1.0305 132.2 20.1 32.3  98
2026 05 09 01  15 57 40.262   +28 43 29.86  .03124 1.0306 132.2 20.1 33.1  98